Regional Weather Roundup
Issued by NWS

Home | Current Version | Previous Version | Graphics & Text | Print | Product List | Glossary On
Versions: 1 2 3 4 5 6 7 8 9 10 11 12 13 14 15 16 17 18 19 20 21 22 23 24 25 26 27 28 29 30 31 32 33 34 35 36 37 38 39 40 41 42 43 44 45 46 47 48 49 50
000
ASUS43 KFSD 211510
RWRSD

WEATHER ROUNDUP FOR SOUTH DAKOTA
NATIONAL WEATHER SERVICE SIOUX FALLS SD
1000 AM CDT MON AUG 21 2017

NOTE: "FAIR" INDICATES FEW OR NO CLOUDS BELOW 12,000 FEET WITH NO
SIGNIFICANT WEATHER AND/OR OBSTRUCTIONS TO VISIBILITY.


SDZ001>005-009-010-012>017-211600-
NORTHWEST AND NORTH CENTRAL SOUTH DAKOTA

CITY           SKY/WX    TMP DP  RH WIND       PRES   REMARKS
BUFFALO          N/A     69  47  45 N16       30.00R
FAITH            N/A     64  62  93 CALM      30.04R
MOBRIDGE       CLOUDY    61  56  83 W3        29.99R
$$

SDZ012>016-024>037-041>051-057-063-072>074-211600-
SOUTHWEST AND SOUTH CENTRAL SOUTH DAKOTA

CITY           SKY/WX    TMP DP  RH WIND       PRES   REMARKS
RAPID CTY ARPT SUNNY     68  54  60 N15       30.05R
PIERRE         LGT RAIN  63  61  93 CALM      29.95R
CUSTER         SUNNY     69  40  34 NE9G21    30.15R
ELLSWORTH AFB  SUNNY     67  54  62 N16       30.05R
PHILIP         CLOUDY    64  63  96 NE7       29.99R
PINE RIDGE     PTSUNNY   72  66  81 N6        30.01R
SPEARFISH      FAIR      68  48  49 NW13      30.14R
WINNER         CLOUDY    68  65  90 SE12      29.92F FOG
$$

SDZ004>011-016>023-039-040-211600-
NORTHEAST SOUTH DAKOTA

CITY           SKY/WX    TMP DP  RH WIND       PRES   REMARKS
ABERDEEN       CLOUDY    64  59  83 N7        29.92F
WATERTOWN      CLOUDY    63  62  97 NE5       30.04R
BROOKINGS      CLOUDY    68  64  87 N5        30.03R
SISSETON         N/A     62  59  90 SE9       29.95F
$$

SDZ017-020-022-023-036>040-048>070-211600-
SOUTHEAST SOUTH DAKOTA

CITY           SKY/WX    TMP DP  RH WIND       PRES   REMARKS
SIOUX FALLS    PTSUNNY   73  67  81 S12       29.97S
HURON          CLOUDY    64  63  96 E9        29.98F
CHAMBERLAIN    CLOUDY    67  67 100 N10       29.99R
MITCHELL       CLOUDY    74  66  76 SE5       29.98R
YANKTON        CLOUDY    74  64  71 SE13G20   29.93F
$$

ABBREVIATIONS USED IN REMARKS
   TC - TEMPERATURE IN CELSIUS
  WCI - WIND CHILL INDEX
   HX - HEAT INDEX
  VSB - VISIBILITY





USA.gov is the U.S. government's official web portal to all federal, state and local government web resources and services.